Lubbock, TX

4:31 AM CST on December 15, 2019 (GMT -0600)
Lubbock International

Weather History for KLBB - May, 2019

Change the Weather History Date:

Friday, May 10, 2019

  Actual Average Record
Temperature  
Mean Temperature 45 °F 68 °F  
Max Temperature 47 °F 82 °F 100 °F (2018)
Min Temperature 43 °F 54 °F 33 °F (1918)
Degree Days  
Heating Degree Days 20 2  
Month to date heating degree days 40 22  
Since 1 July heating degree days 3437 3359  
Cooling Degree Days 0 5  
Month to date cooling degree days 28 39  
Year to date cooling degree days 91 95  
Moisture  
Dew Point 41 °F    
Average Humidity 82    
Maximum Humidity 93    
Minimum Humidity 70    
Precipitation  
Precipitation 0.53 in 0.06 in 1.71 in (1943)
Month to date precipitation 0.67 0.56  
Year to date precipitation 3.59 4.47  
Snow  
Snow 0.00 in 0.00 in - ()
Month to date snowfall T 0.0  
Since 1 July snowfall 10.1 8.2  
Snow Depth 0.00 in    
Sea Level Pressure  
Sea Level Pressure 30.08 in    
Wind  
Wind Speed 10 mph (NE)    
Max Wind Speed 21 mph    
Max Gust Speed 24 mph    
Visibility 8 miles    
Events Rain    
T = Trace of Precipitation, MM = Missing Value Source: NWS Daily Summary

Daily Weather History Graph

Daily Weather History Graph

Search for Another Location

Airport or City:

Astronomy

May. 10, 2019 Rise Set
Actual Time 6:50 AM CDT 8:37 PM CDT
Civil Twilight 6:23 AM CDT 9:04 PM CDT
Nautical Twilight 5:50 AM CDT 9:37 PM CDT
Astronomical Twilight 5:16 AM CDT 10:12 PM CDT
Moon 11:55 AM CDT (5/10) 1:29 AM CDT (5/10)
Length of Visible Light 14h 41m
Length of Day
13h 46m
Waxing Crescent, 35% of the Moon is Illuminated
May 10
Waxing Crescent
May 11
First Quarter
May 18
Full
May 26
Last Quarter
Jun 3
New

Hourly Weather History & Observations

Time (CDT) Temp. Windchill Dew Point Humidity Pressure Visibility Wind Dir Wind Speed Gust Speed Precip Events Conditions
12:53 AM 45.0 °F 41.2 °F 37.9 °F 76% 30.07 in 10.0 mi ENE 6.9 mph - N/A   Scattered Clouds
1:53 AM 45.0 °F 41.2 °F 39.0 °F 80% 30.07 in 10.0 mi NNE 6.9 mph - N/A   Overcast
2:53 AM 46.0 °F 40.2 °F 39.0 °F 76% 30.07 in 10.0 mi NNE 12.7 mph - N/A   Overcast
3:53 AM 46.0 °F 40.2 °F 37.0 °F 71% 30.07 in 10.0 mi NE 12.7 mph - N/A   Overcast
4:53 AM 46.0 °F 40.6 °F 37.0 °F 71% 30.08 in 10.0 mi NE 11.5 mph - N/A   Overcast
5:53 AM 45.0 °F 37.9 °F 37.0 °F 74% 30.09 in 10.0 mi ENE 16.1 mph - N/A   Overcast
6:53 AM 44.1 °F 37.1 °F 36.0 °F 73% 30.12 in 10.0 mi ENE 15.0 mph - N/A   Overcast
7:23 AM 44.1 °F 37.1 °F 35.1 °F 71% 30.17 in 10.0 mi ENE 15.0 mph - N/A   Mostly Cloudy
7:53 AM 44.1 °F 37.1 °F 36.0 °F 73% 30.13 in 10.0 mi ENE 15.0 mph - N/A   Overcast
7:57 AM 44.1 °F 37.7 °F 36.0 °F 73% 30.17 in 10.0 mi ENE 12.7 mph - N/A   Overcast
8:53 AM 44.1 °F 36.2 °F 36.0 °F 73% 30.09 in 10.0 mi NE 18.4 mph - N/A   Overcast
9:28 AM 46.0 °F 39.3 °F 37.0 °F 71% 30.12 in 10.0 mi NE 16.1 mph - N/A   Overcast
9:37 AM 45.0 °F 37.6 °F 37.0 °F 74% 30.12 in 10.0 mi NE 17.3 mph 23.0 mph N/A   Overcast
9:53 AM 46.0 °F 39.9 °F 37.0 °F 71% 30.09 in 10.0 mi NE 13.8 mph - N/A   Overcast
10:27 AM 45.0 °F 38.9 °F 39.0 °F 80% 30.15 in 6.0 mi NE 12.7 mph 17.3 mph 0.02 in Rain Light Rain
10:53 AM 45.0 °F 38.5 °F 39.0 °F 80% 30.11 in 10.0 mi ENE 13.8 mph - 0.02 in Rain Light Rain
11:28 AM 44.1 °F 38.6 °F 39.0 °F 82% 30.15 in 2.5 mi NE 10.4 mph - 0.06 in Rain Rain
11:35 AM 44.1 °F 38.6 °F 39.9 °F 85% 30.15 in 3.0 mi NE 10.4 mph - 0.08 in Rain Heavy Rain
11:53 AM 44.1 °F 37.4 °F 41.0 °F 89% 30.10 in 4.0 mi NE 13.8 mph - 0.15 in Rain Light Rain
12:53 PM 44.1 °F 40.8 °F 41.0 °F 89% 30.10 in 5.0 mi ENE 5.8 mph - 0.07 in Rain Light Rain
12:56 PM 45.0 °F 40.1 °F 42.1 °F 90% 30.12 in 6.0 mi ENE 9.2 mph - 0.01 in Rain Light Rain
12:58 PM 45.0 °F 39.7 °F 42.1 °F 90% 30.12 in 7.0 mi East 10.4 mph - 0.01 in Rain Light Rain
1:39 PM 45.0 °F 40.6 °F 41.0 °F 86% 30.10 in 10.0 mi ENE 8.1 mph - 0.02 in Rain Light Rain
1:53 PM 45.0 °F 40.6 °F 42.1 °F 90% 30.08 in 10.0 mi NE 8.1 mph - 0.02 in Rain Light Rain
2:15 PM 45.0 °F 40.6 °F 42.1 °F 90% 30.10 in 3.0 mi NE 8.1 mph - 0.02 in Rain Rain
2:33 PM 45.0 °F 41.2 °F 42.1 °F 90% 30.10 in 3.0 mi East 6.9 mph - 0.04 in Rain Light Rain
2:41 PM 45.0 °F 40.1 °F 42.1 °F 90% 30.10 in 5.0 mi ENE 9.2 mph - 0.04 in Rain Light Rain
2:44 PM 45.0 °F 39.7 °F 42.1 °F 90% 30.10 in 4.0 mi ENE 10.4 mph - 0.04 in Rain Rain
2:48 PM 44.6 °F 40.2 °F 42.8 °F 93% 30.10 in 2.5 mi ENE 8.1 mph - 0.05 in Rain Rain
2:53 PM 45.0 °F 40.1 °F 42.1 °F 90% 30.07 in 3.0 mi ENE 9.2 mph - 0.07 in Rain Rain
3:21 PM 45.0 °F 40.1 °F 43.0 °F 93% 30.08 in 3.0 mi NE 9.2 mph - 0.08 in Rain Rain
3:37 PM 45.0 °F 41.2 °F 43.0 °F 93% 30.09 in 3.0 mi ENE 6.9 mph - 0.09 in Rain Rain
3:53 PM 45.0 °F 41.8 °F 43.0 °F 93% 30.06 in 3.0 mi NE 5.8 mph - 0.12 in Rain Light Rain
4:53 PM 46.0 °F 41.9 °F 43.0 °F 89% 30.03 in 4.0 mi NE 8.1 mph - 0.06 in Rain Light Rain
5:16 PM 46.0 °F 43.1 °F 43.0 °F 89% 30.06 in 10.0 mi NE 5.8 mph - 0.00 in   Overcast
5:34 PM 46.0 °F 41.9 °F 43.0 °F 89% 30.06 in 10.0 mi ENE 8.1 mph - 0.00 in   Overcast
5:44 PM 46.0 °F 42.5 °F 43.0 °F 89% 30.05 in 10.0 mi NE 6.9 mph - 0.00 in   Overcast
5:53 PM 46.9 °F - 43.0 °F 86% 30.01 in 10.0 mi NE 10.4 mph - 0.00 in   Overcast
6:09 PM 46.0 °F 40.6 °F 43.0 °F 89% 30.05 in 10.0 mi NE 11.5 mph - N/A   Overcast
6:49 PM 46.4 °F 42.9 °F 42.8 °F 87% 30.06 in 7.0 mi ENE 6.9 mph - 0.01 in Rain Light Rain
6:53 PM 46.0 °F 41.4 °F 43.0 °F 89% 30.04 in 8.0 mi ENE 9.2 mph - 0.01 in Rain Light Rain
7:03 PM 46.0 °F 41.9 °F 43.0 °F 89% 30.05 in 2.0 mi NE 8.1 mph - 0.00 in Rain Light Rain
7:05 PM 46.0 °F 41.4 °F 43.0 °F 89% 30.05 in 3.0 mi NE 9.2 mph - 0.00 in Rain Light Rain
7:12 PM 46.0 °F 41.4 °F 43.0 °F 89% 30.06 in 3.0 mi NE 9.2 mph - 0.00 in Rain Light Rain
7:32 PM 46.0 °F 41.9 °F 43.0 °F 89% 30.06 in 8.0 mi NE 8.1 mph - 0.01 in Rain Light Rain
7:41 PM 46.0 °F 42.5 °F 43.0 °F 89% 30.06 in 10.0 mi ENE 6.9 mph - 0.01 in   Overcast
7:50 PM 46.4 °F 41.9 °F 42.8 °F 87% 30.06 in 10.0 mi NE 9.2 mph - 0.01 in   Overcast
7:53 PM 46.0 °F 41.9 °F 43.0 °F 89% 30.03 in 10.0 mi NE 8.1 mph - 0.01 in   Overcast
8:09 PM 46.0 °F 41.9 °F 43.0 °F 89% 30.06 in 7.0 mi NE 8.1 mph - 0.00 in Rain Light Rain
8:16 PM 46.0 °F 42.5 °F 44.1 °F 93% 30.06 in 5.0 mi NE 6.9 mph - 0.00 in   Overcast
8:53 PM 46.0 °F 41.4 °F 44.1 °F 93% 30.03 in 10.0 mi NE 9.2 mph - 0.00 in   Overcast
9:01 PM 46.0 °F 41.9 °F 44.1 °F 93% 30.06 in 10.0 mi NE 8.1 mph - N/A   Overcast
9:50 PM 46.4 °F 42.4 °F 44.6 °F 93% 30.06 in 10.0 mi NE 8.1 mph - N/A   Overcast
9:53 PM 46.0 °F 41.9 °F 44.1 °F 93% 30.03 in 10.0 mi ENE 8.1 mph - N/A   Overcast
10:31 PM 46.0 °F 42.5 °F 44.1 °F 93% 30.07 in 10.0 mi ENE 6.9 mph - N/A   Overcast
10:47 PM 46.4 °F 41.9 °F 44.6 °F 93% 30.07 in 10.0 mi East 9.2 mph - N/A   Overcast
10:53 PM 46.0 °F 42.5 °F 44.1 °F 93% 30.05 in 10.0 mi East 6.9 mph - N/A   Overcast
11:53 PM 46.9 °F - 44.1 °F 90% 30.05 in 10.0 mi NE 4.6 mph - 0.00 in   Overcast